Location: Aalen
(48.8330°N, 10.1000°E)
Time: 19:09:09
(UTC+02:00)

Transit 4A - Pass Details

Date: 02 August 2021
Orbit: 871 x 974 km, 66.8° (Epoch: 16 September)

Event Time Altitude Azimuth Distance (km) Brightness Sun altitude
Rises 23:05:28 0° 151° (SSE) 3,488 - -16.7°
Reaches altitude 10° 23:09:46 10° 122° (ESE) 2,536 - -17.1°
Maximum altitude 23:11:47 12° 101° (ESE) 2,401 - -17.3°
Exits shadow 23:12:24 12° 95° (E) 2,413 9.7 -17.3°
Drops below altitude 10° 23:13:47 10° 81° (E) 2,530 9.9 -17.4°
Sets 23:18:02 0° 51° (NE) 3,468 11.0 -17.8°
